Tracking 29892 objects as of 21-Nov-2024
HD Live streaming from Space Station
objects crossing your sky now

STARLINK-4482

Track STARLINK-4482 now!
10-day predictions
STARLINK-4482 is classified as:


NORAD ID: 53530
Int'l Code: 2022-101D
Perigee: 545.6 km
Apogee: 548.1 km
Inclination: 53.2 °
Period: 95.4 minutes
Semi major axis: 6917 km
RCS: Unknown
Launch date: August 19, 2022
Source: United States (US)
Launch site: AIR FORCE EASTERN TEST RANGE (AFETR)
Your satellite tracking list
Your tracking list is empty




NASA's NSSDC Master Catalog

Two Line Element Set (TLE):
1 53530U 22101D   24325.64050628  .00000213  00000-0  31458-4 0  9990
2 53530  53.2175  42.4298 0001819  81.8216 278.2982 15.08838144124596
Source of the keplerian elements: AFSPC